Year,Month,Day,Hour,Minute,Value (Times are PST for temperature in C)
2016,07,21,00,00,16.50
2016,07,21,00,01,16.50
2016,07,21,00,02,16.40
2016,07,21,00,03,16.40
2016,07,21,00,04,16.30
2016,07,21,00,05,16.30
2016,07,21,00,06,16.20
2016,07,21,00,07,16.20
2016,07,21,00,08,16.10
2016,07,21,00,09,16.10
2016,07,21,00,10,16.00
2016,07,21,00,11,15.90
2016,07,21,00,12,15.90
2016,07,21,00,13,15.90
2016,07,21,00,14,15.80
2016,07,21,00,15,15.80
2016,07,21,00,16,15.70
2016,07,21,00,17,15.70
2016,07,21,00,18,15.70
2016,07,21,00,19,15.70
2016,07,21,00,20,15.60
2016,07,21,00,21,15.60
2016,07,21,00,22,15.60
2016,07,21,00,23,15.50
2016,07,21,00,24,15.50
2016,07,21,00,25,15.40
2016,07,21,00,26,15.40
2016,07,21,00,27,15.40
2016,07,21,00,28,15.30
2016,07,21,00,29,15.30
2016,07,21,00,30,15.30
2016,07,21,00,31,15.20
2016,07,21,00,32,15.20
2016,07,21,00,33,15.20
2016,07,21,00,34,15.20
2016,07,21,00,35,15.20
2016,07,21,00,36,15.20
2016,07,21,00,37,15.10
2016,07,21,00,38,15.10
2016,07,21,00,39,15.10
2016,07,21,00,40,15.10
2016,07,21,00,41,15.10
2016,07,21,00,42,15.10
2016,07,21,00,43,15.10
2016,07,21,00,44,15.10
2016,07,21,00,45,15.10
2016,07,21,00,46,15.10
2016,07,21,00,47,15.10
2016,07,21,00,48,15.10
2016,07,21,00,49,15.10
2016,07,21,00,50,15.10
2016,07,21,00,51,15.10
2016,07,21,00,52,15.10
2016,07,21,00,53,15.10
2016,07,21,00,54,15.00
2016,07,21,00,55,15.00
2016,07,21,00,56,15.00
2016,07,21,00,57,15.00
2016,07,21,00,58,15.00
2016,07,21,00,59,15.00
2016,07,21,01,00,15.00
2016,07,21,01,01,15.00
2016,07,21,01,02,15.00
2016,07,21,01,03,14.90
2016,07,21,01,04,14.90
2016,07,21,01,05,14.90
2016,07,21,01,06,14.90
2016,07,21,01,07,14.90
2016,07,21,01,08,14.90
2016,07,21,01,09,14.90
2016,07,21,01,10,14.80
2016,07,21,01,11,14.80
2016,07,21,01,12,14.80
2016,07,21,01,13,14.80
2016,07,21,01,14,14.80
2016,07,21,01,15,14.80
2016,07,21,01,16,14.70
2016,07,21,01,17,14.70
2016,07,21,01,18,14.70
2016,07,21,01,19,14.70
2016,07,21,01,20,14.70
2016,07,21,01,21,14.70
2016,07,21,01,22,14.60
2016,07,21,01,23,14.60
2016,07,21,01,24,14.60
2016,07,21,01,25,14.50
2016,07,21,01,26,14.50
2016,07,21,01,27,14.50
2016,07,21,01,28,14.50
2016,07,21,01,29,14.50
2016,07,21,01,30,14.50
2016,07,21,01,31,14.50
2016,07,21,01,32,14.50
2016,07,21,01,33,14.50
2016,07,21,01,34,14.50
2016,07,21,06,51,14.90
2016,07,21,06,52,14.90
2016,07,21,06,53,14.90
2016,07,21,06,54,15.00
2016,07,21,06,55,15.00
2016,07,21,06,56,15.00
2016,07,21,06,57,15.10
2016,07,21,06,58,15.10
2016,07,21,06,59,15.10
2016,07,21,07,00,15.20
2016,07,21,07,01,15.20
2016,07,21,07,02,15.20
2016,07,21,07,03,15.20
2016,07,21,07,04,15.20
2016,07,21,07,05,15.20
2016,07,21,07,06,15.30
2016,07,21,07,07,15.30
2016,07,21,07,08,15.30
2016,07,21,07,09,15.30
2016,07,21,07,10,15.30
2016,07,21,07,11,15.40
2016,07,21,07,12,15.40
2016,07,21,07,13,15.40
2016,07,21,07,14,15.50
2016,07,21,07,15,15.50
2016,07,21,07,16,15.50
2016,07,21,07,17,15.50
2016,07,21,07,18,15.60
2016,07,21,07,19,15.60
2016,07,21,07,20,15.60
2016,07,21,07,21,15.60
2016,07,21,07,22,15.60
2016,07,21,07,23,15.60
2016,07,21,07,24,15.60
2016,07,21,07,25,15.70
2016,07,21,07,26,15.70
2016,07,21,07,27,15.70
2016,07,21,07,28,15.70
2016,07,21,07,29,15.80
2016,07,21,07,30,15.80
2016,07,21,07,31,15.90
2016,07,21,07,32,15.90
2016,07,21,07,33,16.00
2016,07,21,07,34,16.00
2016,07,21,07,35,16.10
2016,07,21,07,36,16.20
2016,07,21,07,37,16.30
2016,07,21,07,38,16.30
2016,07,21,07,39,16.40
2016,07,21,07,40,16.40
2016,07,21,07,41,16.50
2016,07,21,07,42,16.50
2016,07,21,07,43,16.60
2016,07,21,07,44,16.60
2016,07,21,07,45,16.70
2016,07,21,07,46,16.70
2016,07,21,07,47,16.70
2016,07,21,07,48,16.70
2016,07,21,07,49,16.70
2016,07,21,07,50,16.70
2016,07,21,07,51,16.80
2016,07,21,07,52,16.80
2016,07,21,07,53,16.80
2016,07,21,07,54,16.90
2016,07,21,07,55,17.00
2016,07,21,07,56,17.10
2016,07,21,07,57,17.20
2016,07,21,07,58,17.20
2016,07,21,07,59,17.30
2016,07,21,08,00,17.50
2016,07,21,08,01,17.60
2016,07,21,08,02,17.70
2016,07,21,08,03,17.80
2016,07,21,08,04,17.90
2016,07,21,08,05,18.00
2016,07,21,08,06,18.10
2016,07,21,08,07,18.10
2016,07,21,08,08,18.20
2016,07,21,08,09,18.30
2016,07,21,08,10,18.40
2016,07,21,08,11,18.40
2016,07,21,08,12,18.40
2016,07,21,08,13,18.40
2016,07,21,08,14,18.40
2016,07,21,08,15,18.40
2016,07,21,08,16,18.50
2016,07,21,08,17,18.50
2016,07,21,08,18,18.40
2016,07,21,08,19,18.40
2016,07,21,08,20,18.40
2016,07,21,08,21,18.40
2016,07,21,08,22,18.40
2016,07,21,08,23,18.40
2016,07,21,08,24,18.50
2016,07,21,08,25,18.50
2016,07,21,08,26,18.60
2016,07,21,08,27,18.60
2016,07,21,08,28,18.60
2016,07,21,08,29,18.70
2016,07,21,08,30,18.70
2016,07,21,08,31,18.80
2016,07,21,08,32,18.90
2016,07,21,08,33,18.90
2016,07,21,08,34,19.00
2016,07,21,08,35,19.10
2016,07,21,08,36,19.10
2016,07,21,08,37,19.10
2016,07,21,08,38,19.20
2016,07,21,08,39,19.30
2016,07,21,08,40,19.50
2016,07,21,08,41,19.60
2016,07,21,08,42,19.70
2016,07,21,08,43,19.80
2016,07,21,08,44,19.80
2016,07,21,08,45,19.80
2016,07,21,08,46,19.70
2016,07,21,08,47,19.70
2016,07,21,08,48,19.70
2016,07,21,08,49,19.70
2016,07,21,08,50,19.70
2016,07,21,08,51,19.80
2016,07,21,08,52,19.80
2016,07,21,08,53,19.80
2016,07,21,08,54,19.80
2016,07,21,08,55,19.90
2016,07,21,08,56,20.00
2016,07,21,08,57,20.00
2016,07,21,08,58,20.10
2016,07,21,08,59,20.10
2016,07,21,09,00,20.00
2016,07,21,09,01,20.10
2016,07,21,09,02,20.10
2016,07,21,09,03,20.10
2016,07,21,09,04,20.10
2016,07,21,09,05,20.10
2016,07,21,09,06,20.00
2016,07,21,09,07,20.00
2016,07,21,09,08,19.90
2016,07,21,09,09,20.00
2016,07,21,09,10,20.00
2016,07,21,09,11,20.10
2016,07,21,09,12,20.10
2016,07,21,09,13,20.20
2016,07,21,09,14,20.20
2016,07,21,09,15,20.20
2016,07,21,09,16,20.30
2016,07,21,09,17,20.30
2016,07,21,09,18,20.30
2016,07,21,09,19,20.20
2016,07,21,09,20,20.20
2016,07,21,09,21,20.20
2016,07,21,09,22,20.20
2016,07,21,09,23,20.20
2016,07,21,09,24,20.20
2016,07,21,09,25,20.20
2016,07,21,09,26,20.30
2016,07,21,09,27,20.30
2016,07,21,09,28,20.30
2016,07,21,09,29,20.40
2016,07,21,09,30,20.50
2016,07,21,09,31,20.60
2016,07,21,09,32,20.60
2016,07,21,09,33,20.60
2016,07,21,09,34,20.60
2016,07,21,09,35,20.60
2016,07,21,09,36,20.70
2016,07,21,09,37,20.70
2016,07,21,09,38,20.70
2016,07,21,09,39,20.70
2016,07,21,09,40,20.70
2016,07,21,09,41,20.70
2016,07,21,09,42,20.70
2016,07,21,09,43,20.70
2016,07,21,09,44,20.70
2016,07,21,09,45,20.70
2016,07,21,09,46,20.70
2016,07,21,09,47,20.70
2016,07,21,09,48,20.70
2016,07,21,09,49,20.70
2016,07,21,09,50,20.80
2016,07,21,09,51,20.80
2016,07,21,09,52,20.80
2016,07,21,09,53,20.80
2016,07,21,09,54,20.90
2016,07,21,09,55,21.00
2016,07,21,09,56,20.90
2016,07,21,09,57,20.90
2016,07,21,09,58,20.90
2016,07,21,09,59,20.80
2016,07,21,10,00,20.80
2016,07,21,10,01,20.90
2016,07,21,10,02,20.90
2016,07,21,10,03,20.90
2016,07,21,10,04,20.90
2016,07,21,10,05,20.90
2016,07,21,10,06,21.00
2016,07,21,10,07,21.00
2016,07,21,10,08,20.90
2016,07,21,10,09,20.90
2016,07,21,10,10,20.80
2016,07,21,10,11,20.80
2016,07,21,10,12,20.80
2016,07,21,10,13,20.90
2016,07,21,10,14,20.90
2016,07,21,10,15,21.00
2016,07,21,10,16,21.10
2016,07,21,10,17,21.20
2016,07,21,10,18,21.20
2016,07,21,10,19,21.30
2016,07,21,10,20,21.40
2016,07,21,10,21,21.40
2016,07,21,10,22,21.40
2016,07,21,10,23,21.40
2016,07,21,10,24,21.40
2016,07,21,10,25,21.40
2016,07,21,10,26,21.40
2016,07,21,10,27,21.40
2016,07,21,10,28,21.40
2016,07,21,10,29,21.40
2016,07,21,10,30,21.40
2016,07,21,10,31,21.50
2016,07,21,10,32,21.50
2016,07,21,10,33,21.60
2016,07,21,10,34,21.70
2016,07,21,10,35,21.80
2016,07,21,10,36,21.80
2016,07,21,10,37,21.80
2016,07,21,10,38,21.80
2016,07,21,10,39,21.80
2016,07,21,10,40,21.80
2016,07,21,10,41,21.90
2016,07,21,10,42,21.90
2016,07,21,10,43,22.00
2016,07,21,10,44,22.00
2016,07,21,10,45,22.00
2016,07,21,10,46,22.10
2016,07,21,10,47,22.10
2016,07,21,10,48,22.10
2016,07,21,10,49,22.10
2016,07,21,10,50,22.10
2016,07,21,10,51,22.10
2016,07,21,10,52,22.10
2016,07,21,10,53,22.20
2016,07,21,10,54,22.20
2016,07,21,10,55,22.30
2016,07,21,10,56,22.30
2016,07,21,10,57,22.40
2016,07,21,10,58,22.40
2016,07,21,10,59,22.40
2016,07,21,11,00,22.50
2016,07,21,11,01,22.60
2016,07,21,11,02,22.60
2016,07,21,11,03,22.70
2016,07,21,11,04,22.80
2016,07,21,11,05,22.80
2016,07,21,11,06,22.90
2016,07,21,11,07,23.00
2016,07,21,11,08,23.10
2016,07,21,11,09,23.20
2016,07,21,11,10,23.20
2016,07,21,11,11,23.20
2016,07,21,11,12,23.20
2016,07,21,11,13,23.20
2016,07,21,11,14,23.20
2016,07,21,11,15,23.20
2016,07,21,11,16,23.20
2016,07,21,11,17,23.20
2016,07,21,11,18,23.30
2016,07,21,11,19,23.30
2016,07,21,11,20,23.30
2016,07,21,11,21,23.20
2016,07,21,11,22,23.20
2016,07,21,11,23,23.20
2016,07,21,11,24,23.20
2016,07,21,11,25,23.10
2016,07,21,11,26,23.00
2016,07,21,11,27,22.90
2016,07,21,11,28,22.80
2016,07,21,11,29,22.70
2016,07,21,11,30,22.60
2016,07,21,11,31,22.60
2016,07,21,11,32,22.60
2016,07,21,11,33,22.60
2016,07,21,11,34,22.60
2016,07,21,11,35,22.50
2016,07,21,11,36,22.50
2016,07,21,11,37,22.40
2016,07,21,11,38,22.30
2016,07,21,11,39,22.30
2016,07,21,11,40,22.40
2016,07,21,11,41,22.40
2016,07,21,11,42,22.40
2016,07,21,11,43,22.40
2016,07,21,11,44,22.40
2016,07,21,11,45,22.40
2016,07,21,11,46,22.50
2016,07,21,11,47,22.60
2016,07,21,11,48,22.70
2016,07,21,11,49,22.80
2016,07,21,11,50,22.80
2016,07,21,11,51,22.90
2016,07,21,11,52,22.90
2016,07,21,11,53,22.90
2016,07,21,11,54,22.90
2016,07,21,11,55,22.90
2016,07,21,11,56,22.80
2016,07,21,11,57,22.80
2016,07,21,11,58,22.70
2016,07,21,11,59,22.60
2016,07,21,12,00,22.60
2016,07,21,12,01,22.60
2016,07,21,12,02,22.60
2016,07,21,12,03,22.60
2016,07,21,12,04,22.60
2016,07,21,12,05,22.60
2016,07,21,12,06,22.70
2016,07,21,12,07,22.90
2016,07,21,12,08,23.00
2016,07,21,12,09,23.20
2016,07,21,12,10,23.40
2016,07,21,12,11,23.60
2016,07,21,12,12,23.70
2016,07,21,12,13,23.80
2016,07,21,12,14,23.90
2016,07,21,12,15,24.00
2016,07,21,12,16,24.10
2016,07,21,12,17,24.00
2016,07,21,12,18,23.90
2016,07,21,12,19,23.80
2016,07,21,12,20,23.70
2016,07,21,12,21,23.70
2016,07,21,12,22,23.70
2016,07,21,12,23,23.70
2016,07,21,12,24,23.70
2016,07,21,12,25,23.70
2016,07,21,12,26,23.70
2016,07,21,12,27,23.70
2016,07,21,12,28,23.70
2016,07,21,12,29,23.60
2016,07,21,12,30,23.60
2016,07,21,12,31,23.60
2016,07,21,12,32,23.70
2016,07,21,12,33,23.80
2016,07,21,12,34,24.00
2016,07,21,12,35,24.20
2016,07,21,12,36,24.30
2016,07,21,12,37,24.30
2016,07,21,12,38,24.40
2016,07,21,12,39,24.40
2016,07,21,12,40,24.30
2016,07,21,12,41,24.40
2016,07,21,12,42,24.40
2016,07,21,12,43,24.40
2016,07,21,12,44,24.40
2016,07,21,12,45,24.40
2016,07,21,12,46,24.30
2016,07,21,12,47,24.30
2016,07,21,12,48,24.30
2016,07,21,12,49,24.10
2016,07,21,12,50,24.00
2016,07,21,12,51,23.90
2016,07,21,12,52,23.80
2016,07,21,12,53,23.80
2016,07,21,12,54,23.90
2016,07,21,12,55,24.00
2016,07,21,12,56,24.20
2016,07,21,12,57,24.40
2016,07,21,12,58,24.50
2016,07,21,12,59,24.70
2016,07,21,13,00,24.70
2016,07,21,13,01,24.70
2016,07,21,13,02,24.60
2016,07,21,13,03,24.60
2016,07,21,13,04,24.60
2016,07,21,13,05,24.70
2016,07,21,13,06,24.80
2016,07,21,13,07,24.80
2016,07,21,13,08,24.80
2016,07,21,13,09,24.70
2016,07,21,13,10,24.70
2016,07,21,13,11,24.60
2016,07,21,13,12,24.50
2016,07,21,13,13,24.40
2016,07,21,13,14,24.50
2016,07,21,13,15,24.50
2016,07,21,13,16,24.60
2016,07,21,13,17,24.70
2016,07,21,13,18,24.70
2016,07,21,13,19,24.80
2016,07,21,13,20,24.90
2016,07,21,13,21,25.00
2016,07,21,13,22,25.10
2016,07,21,13,23,25.10
2016,07,21,13,24,25.10
2016,07,21,13,25,25.10
2016,07,21,13,26,24.90
2016,07,21,13,27,24.80
2016,07,21,13,28,24.80
2016,07,21,13,29,24.80
2016,07,21,13,30,24.90
2016,07,21,13,31,25.00
2016,07,21,13,32,25.10
2016,07,21,13,33,25.10
2016,07,21,13,34,25.10
2016,07,21,13,35,25.10
2016,07,21,13,36,25.10
2016,07,21,13,37,25.00
2016,07,21,13,38,24.90
2016,07,21,13,39,24.80
2016,07,21,13,40,24.80
2016,07,21,13,41,24.80
2016,07,21,13,42,24.90
2016,07,21,13,43,25.00
2016,07,21,13,44,25.00
2016,07,21,13,45,25.10
2016,07,21,13,46,25.20
2016,07,21,13,47,25.30
2016,07,21,13,48,25.40
2016,07,21,13,49,25.50
2016,07,21,13,50,25.60
2016,07,21,13,51,25.80
2016,07,21,13,52,25.90
2016,07,21,13,53,26.00
2016,07,21,13,54,26.20
2016,07,21,13,55,26.30
2016,07,21,13,56,26.30
2016,07,21,13,57,26.30
2016,07,21,13,58,26.30
2016,07,21,13,59,26.10
2016,07,21,14,00,26.00
2016,07,21,14,01,26.00
2016,07,21,14,02,26.10
2016,07,21,14,03,26.20
2016,07,21,14,04,26.30
2016,07,21,14,05,26.40
2016,07,21,14,06,26.50
2016,07,21,14,07,26.50
2016,07,21,14,08,26.60
2016,07,21,14,09,26.60
2016,07,21,14,10,26.60
2016,07,21,14,11,26.60
2016,07,21,14,12,26.60
2016,07,21,14,13,26.70
2016,07,21,14,14,26.80
2016,07,21,14,15,26.80
2016,07,21,14,16,26.80
2016,07,21,14,17,26.90
2016,07,21,14,18,26.90
2016,07,21,14,19,26.90
2016,07,21,14,20,26.80
2016,07,21,14,21,26.70
2016,07,21,14,22,26.60
2016,07,21,14,23,26.60
2016,07,21,14,24,26.60
2016,07,21,14,25,26.70
2016,07,21,14,26,26.80
2016,07,21,14,27,26.90
2016,07,21,14,28,27.00
2016,07,21,14,29,27.10
2016,07,21,14,30,27.20
2016,07,21,14,31,27.30
2016,07,21,14,32,27.30
2016,07,21,14,33,27.30
2016,07,21,14,34,27.40
2016,07,21,14,35,27.30
2016,07,21,14,36,27.20
2016,07,21,14,37,27.20
2016,07,21,14,38,27.20
2016,07,21,14,39,27.20
2016,07,21,14,40,27.20
2016,07,21,14,41,27.20
2016,07,21,14,42,27.30
2016,07,21,14,43,27.20
2016,07,21,14,44,27.20
2016,07,21,14,45,27.20
2016,07,21,14,46,27.20
2016,07,21,14,47,27.30
2016,07,21,14,48,27.40
2016,07,21,14,49,27.40
2016,07,21,14,50,27.40
2016,07,21,14,51,27.40
2016,07,21,14,52,27.40
2016,07,21,14,53,27.40
2016,07,21,14,54,27.40
2016,07,21,14,55,27.40
2016,07,21,14,56,27.40
2016,07,21,14,57,27.20
2016,07,21,14,58,27.10
2016,07,21,14,59,27.10
2016,07,21,15,00,27.10
2016,07,21,15,01,27.20
2016,07,21,15,02,27.30
2016,07,21,15,03,27.40
2016,07,21,15,04,27.50
2016,07,21,15,05,27.50
2016,07,21,15,06,27.50
2016,07,21,15,07,27.50
2016,07,21,15,08,27.60
2016,07,21,15,09,27.70
2016,07,21,15,10,27.80
2016,07,21,15,11,27.90
2016,07,21,15,12,27.90
2016,07,21,15,13,27.80
2016,07,21,15,14,27.70
2016,07,21,15,15,27.60
2016,07,21,15,16,27.60
2016,07,21,15,17,27.50
2016,07,21,15,18,27.30
2016,07,21,15,19,27.30
2016,07,21,15,20,27.30
2016,07,21,15,21,27.30
2016,07,21,15,22,27.30
2016,07,21,15,23,27.30
2016,07,21,15,24,27.30
2016,07,21,15,25,27.30
2016,07,21,15,26,27.40
2016,07,21,15,27,27.30
2016,07,21,15,28,27.10
2016,07,21,15,29,27.00
2016,07,21,15,30,26.80
2016,07,21,15,31,26.60
2016,07,21,15,32,26.60
2016,07,21,15,33,26.60
2016,07,21,15,34,26.50
2016,07,21,15,35,26.50
2016,07,21,15,36,26.50
2016,07,21,15,37,26.50
2016,07,21,15,38,26.50
2016,07,21,15,39,26.50
2016,07,21,15,40,26.50
2016,07,21,15,41,26.40
2016,07,21,15,42,26.40
2016,07,21,15,43,26.50
2016,07,21,15,44,26.50
2016,07,21,15,45,26.60
2016,07,21,15,46,26.70
2016,07,21,15,47,26.70
2016,07,21,15,48,26.80
2016,07,21,15,49,26.70
2016,07,21,15,50,26.70
2016,07,21,15,51,26.60
2016,07,21,15,52,26.50
2016,07,21,15,53,26.40
2016,07,21,15,54,26.40
2016,07,21,15,55,26.30
2016,07,21,15,56,26.20
2016,07,21,15,57,26.20
2016,07,21,15,58,26.20
2016,07,21,15,59,26.20
2016,07,21,16,00,26.10
2016,07,21,16,01,25.90
2016,07,21,16,02,25.90
2016,07,21,16,03,25.80
2016,07,21,16,04,25.80
2016,07,21,16,05,25.80
2016,07,21,16,06,25.80
2016,07,21,16,07,25.90
2016,07,21,16,08,25.90
2016,07,21,16,09,26.00
2016,07,21,16,10,26.00
2016,07,21,16,11,25.90
2016,07,21,16,12,25.90
2016,07,21,16,13,26.00
2016,07,21,16,14,26.00
2016,07,21,16,15,26.10
2016,07,21,16,16,26.10
2016,07,21,16,17,26.10
2016,07,21,16,18,26.20
2016,07,21,16,19,26.20
2016,07,21,16,20,26.20
2016,07,21,16,21,26.20
2016,07,21,16,22,26.20
2016,07,21,16,23,26.30
2016,07,21,16,24,26.40
2016,07,21,16,25,26.40
2016,07,21,16,26,26.40
2016,07,21,16,27,26.40
2016,07,21,16,28,26.40
2016,07,21,16,29,26.30
2016,07,21,16,30,26.30
2016,07,21,16,31,26.30
2016,07,21,16,32,26.40
2016,07,21,16,33,26.40
2016,07,21,16,34,26.50
2016,07,21,16,35,26.50
2016,07,21,16,36,26.60
2016,07,21,16,37,26.70
2016,07,21,16,38,26.70
2016,07,21,16,39,26.70
2016,07,21,16,40,26.70
2016,07,21,16,41,26.70
2016,07,21,16,42,26.80
2016,07,21,16,43,26.70
2016,07,21,16,44,26.80
2016,07,21,16,45,26.70
2016,07,21,16,46,26.60
2016,07,21,16,47,26.60
2016,07,21,16,48,26.60
2016,07,21,16,49,26.60
2016,07,21,16,50,26.60
2016,07,21,16,51,26.70
2016,07,21,16,52,26.70
2016,07,21,16,53,26.70
2016,07,21,16,54,26.80
2016,07,21,16,55,26.90
2016,07,21,16,56,26.90
2016,07,21,16,57,26.90
2016,07,21,16,58,26.90
2016,07,21,16,59,26.90
2016,07,21,17,00,27.00
2016,07,21,17,01,27.00
2016,07,21,17,02,27.00
2016,07,21,17,03,26.90
2016,07,21,17,04,26.90
2016,07,21,17,05,26.90
2016,07,21,17,06,26.80
2016,07,21,17,07,26.70
2016,07,21,17,08,26.70
2016,07,21,17,09,26.70
2016,07,21,17,10,26.70
2016,07,21,17,11,26.70
2016,07,21,17,12,26.60
2016,07,21,17,13,26.60
2016,07,21,17,14,26.60
2016,07,21,17,15,26.60
2016,07,21,17,16,26.60
2016,07,21,17,17,26.60
2016,07,21,17,18,26.60
2016,07,21,17,19,26.70
2016,07,21,17,20,26.70
2016,07,21,17,21,26.70
2016,07,21,17,22,26.60
2016,07,21,17,23,26.60
2016,07,21,17,24,26.50
2016,07,21,17,25,26.50
2016,07,21,17,26,26.50
2016,07,21,17,27,26.50
2016,07,21,17,28,26.50
2016,07,21,17,29,26.60
2016,07,21,17,30,26.60
2016,07,21,17,31,26.70
2016,07,21,17,32,26.70
2016,07,21,17,33,26.80
2016,07,21,17,34,26.80
2016,07,21,17,35,26.80
2016,07,21,17,36,26.80
2016,07,21,17,37,26.80
2016,07,21,17,38,26.70
2016,07,21,17,39,26.70
2016,07,21,17,40,26.60
2016,07,21,17,41,26.60
2016,07,21,17,42,26.60
2016,07,21,17,43,26.70
2016,07,21,17,44,26.80
2016,07,21,17,45,26.80
2016,07,21,17,46,26.90
2016,07,21,17,47,27.00
2016,07,21,17,48,27.00
2016,07,21,17,49,27.10
2016,07,21,17,50,27.20
2016,07,21,17,51,27.30
2016,07,21,17,52,27.20
2016,07,21,17,53,27.20
2016,07,21,17,54,27.30
2016,07,21,17,55,27.30
2016,07,21,17,56,27.30
2016,07,21,17,57,27.30
2016,07,21,17,58,27.30
2016,07,21,17,59,27.20
2016,07,21,18,00,27.20
2016,07,21,18,01,27.20
2016,07,21,18,02,27.20
2016,07,21,18,03,27.20
2016,07,21,18,04,27.20
2016,07,21,18,05,27.10
2016,07,21,18,06,27.10
2016,07,21,18,07,27.00
2016,07,21,18,08,27.00
2016,07,21,18,09,26.90
2016,07,21,18,10,26.90
2016,07,21,18,11,26.90
2016,07,21,18,12,26.90
2016,07,21,18,13,26.90
2016,07,21,18,14,26.90
2016,07,21,18,15,26.90
2016,07,21,18,16,26.90
2016,07,21,18,17,26.90
2016,07,21,18,18,26.90
2016,07,21,18,19,27.00
2016,07,21,18,20,27.00
2016,07,21,18,21,27.00
2016,07,21,18,22,27.00
2016,07,21,18,23,27.00
2016,07,21,18,24,27.00
2016,07,21,18,25,26.90
2016,07,21,18,26,26.90
2016,07,21,18,27,26.90
2016,07,21,18,28,27.00
2016,07,21,18,29,27.00
2016,07,21,18,30,26.90
2016,07,21,18,31,26.90
2016,07,21,18,32,26.90
2016,07,21,18,33,26.80
2016,07,21,18,34,26.80
2016,07,21,18,35,26.80
2016,07,21,18,36,26.70
2016,07,21,18,37,26.70
2016,07,21,18,38,26.70
2016,07,21,18,39,26.70
2016,07,21,18,40,26.70
2016,07,21,18,41,26.70
2016,07,21,18,42,26.70
2016,07,21,18,43,26.70
2016,07,21,18,44,26.70
2016,07,21,18,45,26.70
2016,07,21,18,46,26.70
2016,07,21,18,47,26.60
2016,07,21,18,48,26.60
2016,07,21,18,49,26.50
2016,07,21,18,50,26.60
2016,07,21,18,51,26.60
2016,07,21,18,52,26.60
2016,07,21,18,53,26.60
2016,07,21,18,54,26.60
2016,07,21,18,55,26.60
2016,07,21,18,56,26.60
2016,07,21,18,57,26.70
2016,07,21,18,58,26.70
2016,07,21,18,59,26.70
2016,07,21,19,00,26.70
2016,07,21,19,01,26.60
2016,07,21,19,02,26.60
2016,07,21,19,03,26.60
2016,07,21,19,04,26.70
2016,07,21,19,05,26.70
2016,07,21,19,06,26.70
2016,07,21,19,07,26.70
2016,07,21,19,08,26.70
2016,07,21,19,09,26.70
2016,07,21,19,10,26.60
2016,07,21,19,11,26.60
2016,07,21,19,12,26.50
2016,07,21,19,13,26.50
2016,07,21,19,14,26.40
2016,07,21,19,15,26.40
2016,07,21,19,16,26.30
2016,07,21,19,17,26.30
2016,07,21,19,18,26.30
2016,07,21,19,19,26.30
2016,07,21,19,20,26.30
2016,07,21,19,21,26.30
2016,07,21,19,22,26.30
2016,07,21,19,23,26.30
2016,07,21,19,24,26.30
2016,07,21,19,25,26.30
2016,07,21,19,26,26.30
2016,07,21,19,27,26.30
2016,07,21,19,28,26.30
2016,07,21,19,29,26.30
2016,07,21,19,30,26.30
2016,07,21,19,31,26.30
2016,07,21,19,32,26.30
2016,07,21,19,33,26.20
2016,07,21,19,34,26.20
2016,07,21,19,35,26.30
2016,07,21,19,36,26.30
2016,07,21,19,37,26.30
2016,07,21,19,38,26.30
2016,07,21,19,39,26.30
2016,07,21,19,40,26.20
2016,07,21,19,41,26.20
2016,07,21,19,42,26.20
2016,07,21,19,43,26.20
2016,07,21,19,44,26.20
2016,07,21,19,45,26.20
2016,07,21,19,46,26.20
2016,07,21,19,47,26.10
2016,07,21,19,48,26.10
2016,07,21,19,49,26.00
2016,07,21,19,50,26.00
2016,07,21,19,51,25.90
2016,07,21,19,52,25.90
2016,07,21,19,53,25.90
2016,07,21,19,54,25.90
2016,07,21,19,55,25.80
2016,07,21,19,56,25.80
2016,07,21,19,57,25.80
2016,07,21,19,58,25.70
2016,07,21,19,59,25.70
2016,07,21,20,00,25.60
2016,07,21,20,01,25.60
2016,07,21,20,02,25.60
2016,07,21,20,03,25.50
2016,07,21,20,04,25.50
2016,07,21,20,05,25.40
2016,07,21,20,06,25.40
2016,07,21,20,07,25.40
2016,07,21,20,08,25.30
2016,07,21,20,09,25.30
2016,07,21,20,10,25.30
2016,07,21,20,11,25.30
2016,07,21,20,12,25.20
2016,07,21,20,13,25.20
2016,07,21,20,14,25.20
2016,07,21,20,15,25.10
2016,07,21,20,16,25.10
2016,07,21,20,17,25.10
2016,07,21,20,18,25.00
2016,07,21,20,19,25.00
2016,07,21,20,20,25.00
2016,07,21,20,21,25.00
2016,07,21,20,22,24.90
2016,07,21,20,23,24.90
2016,07,21,20,24,24.90
2016,07,21,20,25,24.90
2016,07,21,20,26,24.90
2016,07,21,20,27,24.90
2016,07,21,20,28,24.80
2016,07,21,20,29,24.80
2016,07,21,20,30,24.80
2016,07,21,20,31,24.80
2016,07,21,20,32,24.80
2016,07,21,20,33,24.80
2016,07,21,20,34,24.80
2016,07,21,20,35,24.80
2016,07,21,20,36,24.80
2016,07,21,20,37,24.90
2016,07,21,20,38,24.90
2016,07,21,20,39,24.90
2016,07,21,20,40,24.90
2016,07,21,20,41,24.90
2016,07,21,20,42,24.90
2016,07,21,20,43,24.90
2016,07,21,20,44,24.90
2016,07,21,20,45,24.90
2016,07,21,20,46,24.90
2016,07,21,20,47,24.90
2016,07,21,20,48,24.90
2016,07,21,20,49,24.90
2016,07,21,20,50,24.90
2016,07,21,20,51,24.90
2016,07,21,20,52,24.90
2016,07,21,20,53,24.90
2016,07,21,20,54,24.80
2016,07,21,20,55,24.80
2016,07,21,20,56,24.80
2016,07,21,20,57,24.80
2016,07,21,20,58,24.80
2016,07,21,20,59,24.80
2016,07,21,21,00,24.80
2016,07,21,21,01,24.70
2016,07,21,21,02,24.70
2016,07,21,21,03,24.70
2016,07,21,21,04,24.70
2016,07,21,21,05,24.70
2016,07,21,21,06,24.60
2016,07,21,21,07,24.60
2016,07,21,21,08,24.60
2016,07,21,21,09,24.60
2016,07,21,21,10,24.60
2016,07,21,21,11,24.60
2016,07,21,21,12,24.50
2016,07,21,21,13,24.50
2016,07,21,21,14,24.50
2016,07,21,21,15,24.40
2016,07,21,21,16,24.40
2016,07,21,21,17,24.40
2016,07,21,21,18,24.40
2016,07,21,21,19,24.40
2016,07,21,21,20,24.40
2016,07,21,21,21,24.40
2016,07,21,21,22,24.40
2016,07,21,21,23,24.40
2016,07,21,21,24,24.30
2016,07,21,21,25,24.30
2016,07,21,21,26,24.30
2016,07,21,21,27,24.30
2016,07,21,21,28,24.30
2016,07,21,21,29,24.30
2016,07,21,21,30,24.30
2016,07,21,21,31,24.30
2016,07,21,21,32,24.20
2016,07,21,21,33,24.20
2016,07,21,21,34,24.20
2016,07,21,21,35,24.20
2016,07,21,21,36,24.20
2016,07,21,21,37,24.20
2016,07,21,21,38,24.20
2016,07,21,21,39,24.10
2016,07,21,21,40,24.10
2016,07,21,21,41,24.10
2016,07,21,21,42,24.10
2016,07,21,21,43,24.10
2016,07,21,21,44,24.10
2016,07,21,21,45,24.10
2016,07,21,21,46,24.10
2016,07,21,21,47,24.10
2016,07,21,21,48,24.10
2016,07,21,21,49,24.00
2016,07,21,21,50,24.00
2016,07,21,21,51,24.00
2016,07,21,21,52,24.00
2016,07,21,21,53,24.00
2016,07,21,21,54,24.00
2016,07,21,21,55,24.00
2016,07,21,21,56,24.00
2016,07,21,21,57,24.00
2016,07,21,21,58,24.00
2016,07,21,21,59,23.90
2016,07,21,22,00,23.90
2016,07,21,22,01,23.90
2016,07,21,22,02,23.90
2016,07,21,22,03,23.90
2016,07,21,22,04,23.90
2016,07,21,22,05,23.90
2016,07,21,22,06,23.90
2016,07,21,22,07,23.90
2016,07,21,22,08,23.80
2016,07,21,22,09,23.80
2016,07,21,22,10,23.80
2016,07,21,22,11,23.80
2016,07,21,22,12,23.80
2016,07,21,22,13,23.80
2016,07,21,22,14,23.70
2016,07,21,22,15,23.70
2016,07,21,22,16,23.70
2016,07,21,22,17,23.70
2016,07,21,22,18,23.70
2016,07,21,22,19,23.70
2016,07,21,22,20,23.70
2016,07,21,22,21,23.60
2016,07,21,22,22,23.60
2016,07,21,22,23,23.60
2016,07,21,22,24,23.60
2016,07,21,22,25,23.60
2016,07,21,22,26,23.60
2016,07,21,22,27,23.50
2016,07,21,22,28,23.50
2016,07,21,22,29,23.50
2016,07,21,22,30,23.50
2016,07,21,22,31,23.40
2016,07,21,22,32,23.40
2016,07,21,22,33,23.40
2016,07,21,22,34,23.40
2016,07,21,22,35,23.40